Terminal Aerodrome Forecast
Issued by NWS

Home | Current Version | Previous Version | Text Only | Print | Product List | Glossary On
Versions: 1 2 3 4 5 6 7 8 9 10 11 12 13 14 15 16
000
FTUS45 KSLC 260532
TAFBCE
TAF
KBCE 260532Z 2606/2706 18007KT P6SM SCT060
     FM261800 24013G20KT P6SM SCT050
     FM270300 27008KT P6SM SCT050=

USA.gov is the U.S. government's official web portal to all federal, state and local government web resources and services.